THOR 5

Last updated on Sat Dec 13 2025 00:02:46 GMT+0000 (Coordinated Universal Time)

1 32487U 08006A 25346.27619247 .00000001 00000+0 00000+0 0 9995 2 32487 0.0186 261.3841 0002583 8.6409 269.8824 1.00270692 65446
UTC large
Height (km)
Speed (km/s)
/
Latitude / Longitude
Inclination (degrees)
Orbital Period (minutes)
Azimuth
Elevation
Range (km)
Doppler Factor

Next 0 passes for location: London (51.5072 / 0.1276)

Sorry there are no passes over London.